Regional Weather Roundup
Issued by NWS

Home | Current Version | Previous Version | Graphics & Text | Print | Product List | Glossary Off
Versions: 1 2 3 4 5 6 7 8 9 10 11 12 13 14 15 16 17 18 19 20 21 22 23 24 25 26 27 28 29 30 31 32 33 34 35 36 37 38 39 40 41 42 43 44 45 46 47 48 49 50

065
ASUS43 KDTX 191901
RWRMI
MICHIGAN HOURLY REGIONAL WEATHER ROUNDUP
NATIONAL WEATHER SERVICE DETROIT/PONTIAC MI
300 PM EDT TUE SEP 19 2017

NOTE: "FAIR" INDICATES FEW OR NO CLOUDS BELOW 12,000 FEET WITH NO
SIGNIFICANT WEATHER AND/OR OBSTRUCTION TO VISIBILITY.

MIZ047>049-052>055-059>063-066>070-074>076-081>083-192000-
SOUTHEAST LOWER MICHIGAN

CITY           SKY/WX    TMP DP  RH WIND       PRES   REMARKS
ADRIAN         CLOUDY    71  65  81 SE9       29.97F
ALMA           CLOUDY    69  58  67 N9        30.00F
ANN ARBOR      CLOUDY    71  68  90 E6        29.97F
BAD AXE        CLOUDY    69  65  86 E3        30.02F
CARO           CLOUDY    67  64  90 E3        30.00F
DETROIT CITY   CLOUDY    70  68  93 SE6       29.98F
DETROIT        LGT RAIN  70  69  97 E3        29.98F FOG
FLINT          CLOUDY    67  62  84 NE10      29.99F
GROSSE ILE     DRIZZLE   71  69  93 SE3       29.96F
HILLSDALE      CLOUDY    68  64  88 NE6       29.96F
HOWELL         CLOUDY    68  65  92 NE3       29.98F FOG

CITY           SKY/WX    TMP DP  RH WIND       PRES   REMARKS
JACKSON        CLOUDY    70  64  81 E7        29.97F HAZE
LAMBERTVILLE   DRIZZLE   72  68  88 SE6       29.95F
LANSING        CLOUDY    68  60  75 E6        29.99F
LAPEER         CLOUDY    69  64  82 E6        29.99F
MASON          CLOUDY    69  62  78 N6        29.98F
MONROE         CLOUDY    71  68  90 E6        29.95F FOG
MT. CLEMENS    LGT RAIN  69  69 100 E7        29.97S FOG
PONTIAC        LGT RAIN  70  67  90 E7        29.97F
PORT HOPE        N/A     66  63  90 E7        30.01F
PORT HURON     RAIN      70  68  94 CALM      29.99F
TRI CITIES     CLOUDY    70  64  81 NE8       30.01F
MIDLAND        CLOUDY    68  62  79 E10       30.01S
TROY           RAIN      69  67  93 E7        30.00F
SAGINAW HB     CLOUDY    70  61  73 E5        29.99F
$$
MIZ043>046-050>051-056>058-064>065-071>073-077>080-192000-
SOUTHWEST LOWER MICHIGAN

CITY           SKY/WX    TMP DP  RH WIND       PRES   REMARKS
BATTLE CREEK   CLOUDY    67  64  90 NE7       29.98F FOG
BENTON HARBOR  CLOUDY    74  64  71 E5        29.94F
BIG RAPIDS     CLOUDY    70  55  59 E7G26     29.99F
COLDWATER      CLOUDY    70  67  91 NE5       29.96F
FREMONT        PTSUNNY   72  60  65 E7        29.98F
HOLLAND        CLOUDY    75  62  64 E12       29.97F
GRAND RAPIDS   CLOUDY    73  60  63 E10       29.98F
IONIA          CLOUDY    71  58  64 N7        29.98F
KALAMAZOO      CLOUDY    70  63  78 NE6       29.97F HAZE
LUDINGTON      SUNNY     74  56  54 SE6       29.97F
MARSHALL       CLOUDY    70  65  84 E7        29.97F
MOUNT PLEASANT CLOUDY    71  59  64 E6        30.00F
MUSKEGON       CLOUDY    74  58  57 E10       29.97F
SOUTH HAVEN    CLOUDY    74  63  69 NE7       29.95F
$$
MIZ016>042-192000-
NORTHERN LOWER MICHIGAN

CITY           SKY/WX    TMP DP  RH WIND       PRES   REMARKS
ALPENA         PTSUNNY   67  59  75 E8        30.05F
BEAVER ISLAND  MOSUNNY   72  58  60 E9        30.03F
BELLAIRE       SUNNY     74  50  42 SE8       30.00F
CADILLAC       MOSUNNY   75  44  32 SE9       30.00F
CHARLEVOIX     SUNNY     72  52  48 E8        30.04F
FRANKFORT      SUNNY     76  44  31 NE6       29.99F
GAYLORD        CLOUDY    71  52  50 VRB6      30.03F
GRAYLING       MOSUNNY   72  53  51 E12       30.02F
HARBOR SPRINGS SUNNY     74  52  45 E9G16     30.02F
HOUGHTON LAKE  MOSUNNY   72  54  53 SE7       30.02F
MANISTEE       MOSUNNY   74  53  48 E8        29.98F
OSCODA         CLOUDY    69  58  68 N6        30.02F
PELLSTON       MOSUNNY   73  51  46 SE8G17    30.03F
ROGERS CITY    MOSUNNY   65  58  78 NE14      30.06F
TRAVERSE CITY  MOSUNNY   75  51  43 N7        29.98F
$$
MIZ007>008-015-192000-
EASTERN UPPER MICHIGAN

CITY           SKY/WX    TMP DP  RH WIND       PRES   REMARKS
KINROSS        SUNNY     70  43  37 E15       30.06F
MACKINAC ISLAN SUNNY     66  56  70 E9G17     30.05F
NEWBERRY       SUNNY     71  52  50 E10       30.04F
S. S. MARIE    SUNNY     71  51  49 SE8       30.06F
MUNISING         N/A     74  54  49 E9        30.00F
$$
MIZ004>006-011>014-085-192000-
CENTRAL UPPER MICHIGAN

CITY           SKY/WX    TMP DP  RH WIND       PRES   REMARKS
MANISTIQUE     SUNNY     68  56  64 E9        30.03F
ESCANABA       SUNNY     68  55  63 SE12      30.01F
MENOMINEE      SUNNY     71  58  63 E9        30.00F
SAWYER-GWINN   PTSUNNY   72  55  56 S10       30.01F
$$
MIZ001>003-009>011-084-192000-
WESTERN UPPER MICHIGAN

CITY           SKY/WX    TMP DP  RH WIND       PRES   REMARKS
IRON MOUNTAIN  MOSUNNY   70  56  61 SE8       29.99F
HOUGHTON       SUNNY     66  53  63 E9        29.99F
COPPER HARBOR    N/A     68  49  50 VRB7      30.00F
IRONWOOD       SUNNY     74  56  53 SE12G17   29.94F
$$

ABBREVIATIONS USED IN REMARKS
   TC - TEMPERATURE IN CELSIUS
  WCI - WIND CHILL INDEX
   HX - HEAT INDEX
  VSB - VISIBILITY





USA.gov is the U.S. government's official web portal to all federal, state and local government web resources and services.